When you browse on this site, cookies collect data to enhance your experience and personalize the content and advertising you see.
Visit our Privacy Policy to learn more. By continuing to use the site, you agree to this use of cookies and data.
  • en Suisse
  • Liste des pays
  • À 7 jours
  • Température de l'eau
  • Carte météo
  • Widgets météo
  • user-avatar
    Se connecter

    Météo par heure à Caen

    Ce jour, 21 Février, Vendredi

    Heure Température Précipitation Vent Pression Humidité
    00:00 +3°C° 0 mm 4 m/s 769 mmHg 86%
    01:00 +1°C° 0 mm 4 m/s 769 mmHg 88%
    02:00 +1°C° 0 mm 5 m/s 769 mmHg 89%
    03:00 +1°C° 0 mm 5 m/s 769 mmHg 91%
    04:00 +1°C° 0 mm 5 m/s 769 mmHg 91%
    05:00 +1°C° 0 mm 5 m/s 769 mmHg 92%
    06:00 +1°C° 0 mm 5 m/s 770 mmHg 91%
    13:00 +8°C° 0 mm 6 m/s 770 mmHg 75%
    14:00 +9°C° 0 mm 6 m/s 769 mmHg 75%
    15:00 +9°C° 0 mm 6 m/s 769 mmHg 74%
    16:00 +8°C° 0 mm 6 m/s 769 mmHg 78%
    17:00 +7°C° 0 mm 6 m/s 769 mmHg 82%
    18:00 +6°C° 0 mm 5 m/s 769 mmHg 86%
    19:00 +5°C° 0 mm 6 m/s 769 mmHg 87%
    20:00 +5°C° 0 mm 7 m/s 769 mmHg 87%
    21:00 +4°C° 0 mm 7 m/s 768 mmHg 88%
    22:00 +4°C° 0 mm 7 m/s 768 mmHg 88%
    23:00 +4°C° 0 mm 8 m/s 768 mmHg 88%

    Demain, 22 Février, Samedi

    Heure Température Précipitation Vent Pression Humidité
    00:00 +4°C° 0 mm 8 m/s 768 mmHg 87%
    01:00 +4°C° 0 mm 8 m/s 768 mmHg 87%
    02:00 +4°C° 0 mm 8 m/s 767 mmHg 86%
    03:00 +4°C° 0 mm 8 m/s 766 mmHg 85%
    04:00 +3°C° 0 mm 9 m/s 767 mmHg 84%
    05:00 +3°C° 0 mm 9 m/s 767 mmHg 83%
    06:00 +3°C° 0 mm 9 m/s 767 mmHg 82%
    07:00 +5°C° 0 mm 9 m/s 767 mmHg 82%
    08:00 +6°C° 0 mm 9 m/s 767 mmHg 81%
    09:00 +7°C° 0 mm 10 m/s 767 mmHg 81%
    10:00 +7°C° 0 mm 9 m/s 767 mmHg 82%
    11:00 +8°C° 0 mm 9 m/s 767 mmHg 83%
    12:00 +10°C° 0 mm 8 m/s 768 mmHg 83%
    13:00 +10°C° 0 mm 8 m/s 768 mmHg 83%
    14:00 +11°C° 0 mm 8 m/s 768 mmHg 83%
    15:00 +12°C° 0 mm 8 m/s 767 mmHg 82%
    16:00 +11°C° 0 mm 7 m/s 768 mmHg 83%
    17:00 +10°C° 0 mm 6 m/s 768 mmHg 84%
    18:00 +10°C° 0 mm 6 m/s 769 mmHg 86%
    19:00 +9°C° 0 mm 5 m/s 769 mmHg 85%
    20:00 +9°C° 0 mm 5 m/s 769 mmHg 85%
    21:00 +9°C° 0 mm 5 m/s 769 mmHg 84%
    22:00 +9°C° 0 mm 5 m/s 769 mmHg 86%
    23:00 +9°C° 0 mm 5 m/s 769 mmHg 88%

    Après-demain, 23 Février, Dimanche

    Heure Température Précipitation Vent Pression Humidité
    00:00 +9°C° 0 mm 5 m/s 769 mmHg 90%
    01:00 +9°C° 0 mm 6 m/s 768 mmHg 90%
    02:00 +10°C° 0 mm 7 m/s 768 mmHg 90%
    03:00 +10°C° 0 mm 8 m/s 767 mmHg 90%
    04:00 +11°C° 0 mm 8 m/s 766 mmHg 88%
    05:00 +11°C° 0 mm 9 m/s 766 mmHg 87%
    06:00 +12°C° 0 mm 10 m/s 766 mmHg 85%
    07:00 +12°C° 0 mm 10 m/s 765 mmHg 84%
    08:00 +12°C° 0 mm 10 m/s 765 mmHg 84%
    09:00 +13°C° 0 mm 11 m/s 765 mmHg 83%
    10:00 +12°C° 0 mm 10 m/s 765 mmHg 83%
    11:00 +12°C° 0 mm 10 m/s 765 mmHg 83%
    12:00 +12°C° 0 mm 10 m/s 765 mmHg 83%
    13:00 +12°C° 0 mm 10 m/s 765 mmHg 83%
    14:00 +12°C° 0 mm 10 m/s 765 mmHg 84%
    15:00 +12°C° 0 mm 10 m/s 765 mmHg 85%
    16:00 +12°C° 0 mm 9 m/s 765 mmHg 86%
    17:00 +12°C° 0 mm 8 m/s 766 mmHg 87%
    18:00 +11°C° 0 mm 7 m/s 767 mmHg 89%
    19:00 +11°C° 0 mm 6 m/s 767 mmHg 90%
    20:00 +12°C° 0 mm 5 m/s 767 mmHg 91%
    21:00 +11°C° 0 mm 4 m/s 768 mmHg 93%
    22:00 +11°C° 0 mm 3 m/s 768 mmHg 91%
    23:00 +12°C° 0 mm 2 m/s 768 mmHg 90%

    24 Février, Lundi

    Heure Température Précipitation Vent Pression Humidité
    00:00 +11°C° 0 mm 1 m/s 769 mmHg 89%
    01:00 +10°C° 0.1 mm 2 m/s 768 mmHg 90%
    02:00 +11°C° 0.1 mm 3 m/s 767 mmHg 92%
    03:00 +11°C° 0.1 mm 3 m/s 767 mmHg 94%
    04:00 +11°C° 0 mm 4 m/s 766 mmHg 93%
    05:00 +10°C° 0 mm 5 m/s 766 mmHg 91%
    06:00 +10°C° 0 mm 6 m/s 765 mmHg 90%
    07:00 +10°C° 0 mm 7 m/s 765 mmHg 89%
    08:00 +10°C° 0 mm 7 m/s 764 mmHg 88%
    09:00 +11°C° 0 mm 7 m/s 764 mmHg 88%
    10:00 +11°C° 0 mm 8 m/s 764 mmHg 84%
    11:00 +12°C° 0 mm 8 m/s 763 mmHg 80%
    12:00 +13°C° 0 mm 9 m/s 763 mmHg 76%
    13:00 +12°C° 0 mm 9 m/s 762 mmHg 75%
    14:00 +12°C° 0 mm 9 m/s 761 mmHg 75%
    15:00 +12°C° 0 mm 9 m/s 761 mmHg 74%
    16:00 +11°C° 0.1 mm 8 m/s 760 mmHg 76%
    17:00 +11°C° 0.1 mm 8 m/s 760 mmHg 77%
    18:00 +10°C° 0.1 mm 8 m/s 760 mmHg 79%
    19:00 +10°C° 0.3 mm 8 m/s 759 mmHg 83%
    20:00 +10°C° 0.3 mm 8 m/s 759 mmHg 86%
    21:00 +10°C° 0.3 mm 7 m/s 759 mmHg 90%
    22:00 +9°C° 0.2 mm 7 m/s 759 mmHg 89%
    23:00 +8°C° 0.2 mm 7 m/s 759 mmHg 88%

    25 Février, Mardi

    Heure Température Précipitation Vent Pression Humidité
    00:00 +7°C° 0.2 mm 6 m/s 759 mmHg 87%
    01:00 +7°C° 0 mm 6 m/s 759 mmHg 85%
    02:00 +7°C° 0 mm 6 m/s 759 mmHg 84%
    03:00 +5°C° 0 mm 7 m/s 759 mmHg 82%
    04:00 +5°C° 0.1 mm 7 m/s 758 mmHg 82%
    05:00 +5°C° 0.1 mm 6 m/s 758 mmHg 82%
    06:00 +5°C° 0.1 mm 6 m/s 758 mmHg 81%
    07:00 +5°C° 0.1 mm 7 m/s 758 mmHg 80%
    08:00 +5°C° 0.1 mm 7 m/s 758 mmHg 79%
    09:00 +6°C° 0.1 mm 7 m/s 758 mmHg 78%
    10:00 +6°C° 0.1 mm 8 m/s 758 mmHg 76%
    11:00 +6°C° 0.1 mm 9 m/s 757 mmHg 74%
    12:00 +7°C° 0.1 mm 10 m/s 757 mmHg 72%
    13:00 +6°C° 0.3 mm 10 m/s 757 mmHg 75%
    14:00 +6°C° 0.3 mm 10 m/s 756 mmHg 79%
    15:00 +6°C° 0.3 mm 10 m/s 755 mmHg 82%
    16:00 +5°C° 0.3 mm 10 m/s 755 mmHg 82%
    17:00 +5°C° 0.3 mm 9 m/s 755 mmHg 82%
    18:00 +5°C° 0.3 mm 8 m/s 754 mmHg 83%
    19:00 +3°C° 0.3 mm 9 m/s 754 mmHg 81%
    20:00 +3°C° 0.3 mm 9 m/s 755 mmHg 80%
    21:00 +2°C° 0.3 mm 10 m/s 755 mmHg 79%
    22:00 +2°C° 0.2 mm 10 m/s 755 mmHg 82%
    23:00 +1°C° 0.2 mm 10 m/s 755 mmHg 85%

    26 Février, Mercredi

    Heure Température Précipitation Vent Pression Humidité
    00:00 +1°C° 0.2 mm 10 m/s 755 mmHg 87%
    01:00 +1°C° 0.3 mm 10 m/s 755 mmHg 84%
    02:00 +1°C° 0.3 mm 10 m/s 755 mmHg 81%
    03:00 0°C° 0.3 mm 9 m/s 755 mmHg 78%
    04:00 0°C° 0.2 mm 9 m/s 756 mmHg 76%
    05:00 0°C° 0.2 mm 9 m/s 757 mmHg 75%
    06:00 0°C° 0.2 mm 9 m/s 757 mmHg 74%
    07:00 0°C° 0.1 mm 9 m/s 758 mmHg 73%
    08:00 +1°C° 0.1 mm 9 m/s 759 mmHg 73%
    09:00 +2°C° 0.1 mm 9 m/s 759 mmHg 73%
    10:00 +3°C° 0.1 mm 9 m/s 760 mmHg 68%
    11:00 +3°C° 0.1 mm 10 m/s 760 mmHg 63%
    12:00 +4°C° 0.1 mm 11 m/s 760 mmHg 58%
    13:00 +5°C° 0 mm 10 m/s 761 mmHg 59%
    14:00 +5°C° 0 mm 9 m/s 761 mmHg 60%
    15:00 +5°C° 0 mm 9 m/s 761 mmHg 61%
    16:00 +4°C° 0 mm 8 m/s 761 mmHg 65%
    17:00 +4°C° 0 mm 6 m/s 761 mmHg 70%
    18:00 +3°C° 0 mm 5 m/s 761 mmHg 75%
    19:00 +3°C° 0.1 mm 5 m/s 761 mmHg 79%
    20:00 +3°C° 0.1 mm 5 m/s 761 mmHg 84%
    21:00 +4°C° 0.1 mm 4 m/s 761 mmHg 88%
    22:00 +4°C° 0.1 mm 4 m/s 760 mmHg 88%
    23:00 +3°C° 0.1 mm 5 m/s 760 mmHg 88%
    Voir plus